Location: Wald
(31.7579°N, 86.6655°W)
Time: 00:15:01
(UTC+00:00)

Cosmos 2084 - Pass Details

Date: 14 July 2020
Orbit: 571 x 612 km, 62.8° (Epoch: 12 August)

Event Time Altitude Azimuth Distance (km) Brightness Sun altitude
Rises 01:57:07 0° 333° (NNW) 2,874 8.2 -12.4°
Reaches altitude 10° 01:59:26 10° 338° (NNW) 1,964 7.1 -12.8°
Maximum altitude 02:03:49 60° 58° (ENE) 698 3.7 -13.6°
Enters shadow 02:06:28 23° 132° (SE) 1,304 4.6 -14.0°
